EW4622 Weather Reports


time (UTC)temp
C
wind
direction
speed
KPH
gust
KPH
rain 1hr
cm
rain 24hr
cm
rain mn
cm
humidity
%
barometer
mb
20260507070044 -17 0.0 0.0 0.00 0.20 0.20 1013.2
20260507064545 -17 0.0 0.0 0.00 0.20 0.20 1013.1
20260507063045 -17 0.0 0.0 0.00 0.20 0.20 1013.1
20260507061536 -17 0.0 0.0 0.00 0.20 0.20 1013.0
20260507060025 -17 0.0 0.0 0.00 0.20 0.20 1012.8
20260507054521 -17 0.0 0.0 0.00 0.20 0.20 1012.7
20260507053021 -17 0.0 0.0 0.00 0.20 0.20 1012.6
20260507051513 -17 0.0 0.0 0.00 0.20 0.20 1012.6
20260507050100 -17 0.0 0.0 0.00 0.20 0.20 1012.4
20260507044601 -17 0.0 0.0 0.00 0.20 0.20 1012.3
20260507043058 -17 0.0 0.0 0.00 0.20 0.20 1012.2
20260507041601 -17 0.0 0.0 0.00 0.20 0.20 1012.0
20260507040106 -17 0.0 0.0 0.00 0.20 0.20 1011.9
20260507034619 -17 0.0 0.0 0.00 0.20 0.20 1012.0
20260507033106 -17 0.0 0.0 0.00 0.20 0.20 1012.0
20260507031556 -17 0.0 0.0 0.00 0.20 0.20 1012.0
20260507030044 -17 0.0 0.0 0.00 0.20 0.20 1012.1
20260507024553 -17 0.0 0.0 0.00 0.20 0.20 1012.0
20260507023043 -17 0.0 0.0 0.00 0.20 0.20 1012.2
20260507021540 10 229 0.0 0.0 0.00 0.20 0.20 1 1012.3
20260507020034 10 229 0.0 0.0 0.00 0.20 0.20 1 1012.2
20260507014530 10 229 0.0 0.0 0.00 0.20 0.20 1 1012.1
20260507013025 10 229 0.0 0.0 0.00 0.20 0.20 1 1012.1
20260507011521 10 229 0.0 0.0 0.00 0.20 0.20 1 1012.0
20260507010059 10 229 0.0 0.0 0.00 0.23 0.20 1 1012.1
20260507004555 10 229 0.0 1.6 0.00 0.23 0.20 1 1012.2
20260507003038 11 229 0.0 0.0 0.00 0.23 0.20 1 1012.1
20260507003013 11 229 0.0 0.0 0.00 0.23 0.20 1 1012.2
20260507000030 11 229 0.0 0.0 0.00 0.23 0.20 1 1012.2
20260506234542 11 229 0.0 0.0 0.00 0.23 0.20 1 1012.1
20260506233023 11 228 0.0 1.6 0.03 0.23 0.20 1 1012.4
20260506231522 11 229 0.0 0.0 0.03 0.23 0.20 1 1012.2
20260506230021 11 228 0.0 0.0 0.03 0.25 0.20 1 1012.1
20260506224525 11 228 0.0 1.6 0.03 0.25 0.20 1 1012.2
20260506223103 11 228 0.0 0.0 0.00 0.23 0.18 1 1012.2
20260506221554 11 228 0.0 0.0 0.00 0.23 0.18 1 1012.1
20260506220104 11 228 0.0 1.6 0.00 0.23 0.18 1 1011.9
20260506214546 12 229 0.0 1.6 0.00 0.23 0.18 1 1012.0
20260506213041 12 229 0.0 3.2 0.00 0.23 0.18 1 1012.2
20260506211542 12 229 0.0 1.6 0.00 0.23 0.18 1 1012.0
20260506210032 13 229 0.0 0.0 0.00 0.25 0.18 1 1011.9
20260506204531 13 229 0.0 0.0 0.00 0.25 0.18 1 1011.8
20260506203013 13 229 0.0 1.6 0.00 0.25 0.18 1 1011.7
20260506201506 13 229 0.0 1.6 0.00 0.25 0.18 1 1011.7
20260506200003 13 229 0.0 1.6 0.00 0.28 0.18 6 1011.5
20260506194601 14 229 0.0 1.6 0.00 0.28 0.18 10 1011.3
20260506193056 14 229 0.0 1.6 0.03 0.28 0.18 16 1011.0
20260506191548 14 229 0.0 3.2 0.03 0.28 0.18 21 1010.8
20260506190044 14 229 0.0 1.6 0.03 0.30 0.18 26 1010.6
20260506184540 14 229 0.0 3.2 0.03 0.30 0.18 29 1010.4
20260506183023 15 228 0.0 3.2 0.00 0.28 0.15 29 1010.3
20260506181518 15 223 0.0 8.0 0.00 0.28 0.15 27 1010.1
20260506180014 15 225 0.0 6.4 0.00 0.30 0.15 21 1010.2
20260506174510 15 236 0.0 6.4 0.00 0.30 0.15 14 1010.1
20260506173005 14 229 1.6 8.0 0.00 0.30 0.15 7 1009.9
20260506171501 14 229 1.6 11.3 0.00 0.30 0.15 1 1009.8
20260506170104 13 250 1.6 11.3 0.00 0.33 0.15 1 1009.7
20260506164553 13 238 1.6 11.3 0.00 0.33 0.15 1 1009.7
20260506163049 13 240 4.8 16.1 0.03 0.33 0.15 1 1009.7
20260506161532 13 238 1.6 14.5 0.03 0.33 0.15 1 1009.8
20260506160037 14 223 3.2 12.9 0.03 0.38 0.15 1 1009.5
20260506154524 15 250 3.2 14.5 0.03 0.38 0.15 1 1009.3
20260506153017 15 240 3.2 11.3 0.00 0.36 0.15 1 1009.1
20260506151517 15 268 3.2 12.9 0.03 0.36 0.15 1 1009.1
20260506150008 15 265 3.2 11.3 0.03 0.43 0.15 1 1009.0
20260506144503 15 250 1.6 14.5 0.03 0.43 0.15 1 1009.1
20260506143059 16 248 0.0 6.4 0.03 0.43 0.15 1 1009.0
20260506141543 16 243 1.6 6.4 0.00 0.41 0.13 1 1009.2
20260506140038 15 270 4.8 20.9 0.03 0.43 0.13 1 1009.3
20260506134533 14 225 4.8 16.1 0.03 0.43 0.13 1 1009.3
20260506133028 13 284 6.4 24.1 0.05 0.43 0.13 1 1009.1
20260506131540 14 259 3.2 14.5 0.05 0.43 0.13 1 1009.2
20260506130034 16 236 6.4 19.3 0.05 0.48 0.10 1 1009.5
20260506124516 16 242 3.2 16.1 0.03 0.46 0.08 1 1009.4
20260506123011 17 249 4.8 19.3 0.05 0.46 0.08 1 1009.5
20260506121553 17 218 8.0 24.1 0.05 0.46 0.08 1 1009.4
20260506120050 17 229 3.2 14.5 0.03 0.48 0.05 1 1009.3
20260506114545 16 219 3.2 12.9 0.05 0.48 0.05 1 1009.5
20260506113041 16 271 3.2 19.3 0.05 0.46 0.05 1 1009.6
20260506111536 16 231 3.2 12.9 0.05 0.46 0.05 1 1009.6
20260506110032 16 229 6.4 14.5 0.03 0.43 0.03 1 1009.8
20260506104527 16 228 6.4 19.3 0.03 0.43 0.03 1 1009.8
20260506103034 16 219 1.6 16.1 0.00 0.43 0.00 1 1009.9
20260506101601 16 229 3.2 8.0 0.00 0.43 0.00 1 1010.0
20260506100056 15 281 0.0 11.3 0.00 0.43 0.00 1 1009.9
20260506094549 15 211 1.6 16.1 0.00 0.43 0.00 1 1009.8
20260506093039 -17 0.0 0.0 0.00 0.43 0.00 1009.7
20260506091532 -17 0.0 0.0 0.00 0.43 0.00 1009.6
20260506090031 -17 0.0 0.0 0.00 0.43 0.00 1009.7
20260506084527 -17 0.0 0.0 0.00 0.43 0.00 1009.7
20260506083022 -17 0.0 0.0 0.00 0.43 0.00 1009.6
20260506081518 -17 0.0 0.0 0.00 0.43 0.00 1009.7
20260506073003 -17 0.0 0.0 0.00 0.43 0.43 1009.5
20260506071502 -17 0.0 0.0 0.00 0.43 0.43 1009.4